COSMOS 2251 DEB, 36551

Orbit data source: Space-Track

COSMOS 2251 DEB, 36551 is space debris in LEO originally from a launch on Wed, 16 Jun 1993 UTC launched from the Plesetsk Missile And Space Complex (PKMTR). The debris from Iridium 33, an American commercial communications satellite, has been tracked extensively since its accidental collision with the defunct Russian satellite Cosmos 2251 in 2009. This event, occurring at high speed in low Earth orbit (LEO), generated thousands of pieces of space debris, significantly increasing the risk of further collisions. The Iridium 33 debris cloud has impacted space traffic management and orbital debris mitigation strategies, making it a subject of ongoing study in space situational awareness.

Loading next visibility...
Identifier
36551, 1993-036BDM
Orbit
LEO
Country
Flag of CISCIS
Related business
Manufacturer
Unknown
Mission
Spacecraft
Bus & Motor
Unknown
Mass
Unknown
Launch date (UTC)
1993-06-16 (33 years ago)
Launch vehicle
Unknown
Launch site
Plesetsk Missile And Space Complex (PKMTR)
Object type
Payload
Rocket body
Debris
Shape & HBR
Unknown shape, 0.1 m
Radar Cross Section
Small (<0.1 m²)

Expand to show TLE details & history
Last TLE update: 22 hours ago

TLE from 22 hours ago
0 COSMOS 2251 DEB
1 36551U 93036BDM 26034.06212040  .00020208  00000-0  13930-2 0  9991
2 36551  73.8836 266.7780 0047697 205.2051 154.6810 15.04842941677183
Epoch: 2026-02-03T01:29Z
TLE epoch observation values (Epoch: 2026-02-03T01:29:27.202Z)
Latitude
-0.00009°
Longitude
111.16618°
Altitude
584.586 km
Speed
7.552 km/s
True Right ascension
17h 47m 06s
True Declination
0° 00' 00"
Sunlit
Object was in daylight at epoch
Visualization orbit readout
Latitude
Unknown
Longitude
Unknown
Altitude
Unknown
Speed
Unknown
Apparent Right ascension
Unknown
Apparent Declination
Unknown
Sunlit
N/A
Visualization observer readout
Local Sidereal Time
01:46:18
Azimuth
Unknown
Elevation
Unknown
Doppler factor
Unknown
Orbital elements
Apogee altitude
582.593 km
Perigee altitude
516.507 km
Semi-major axis
6,927.687 km
Eccentricity
0.00477
Inclination
73.8836°
RAAN
266.778°
Arg. of periapsis
205.2051°
True anomaly
154.91349°
Mean anomaly
154.681°
Eccentric anomaly
154.79737°
Mean motion
3.7641 °/min
Orbital period
95.64 mins
BSTAR
0.001393
Loading maneuver chart data...
Computing Atmospheric mass density...

Documentation

Showing up to 5 results
|